[[{"header":{"parameterUnit":"m.s-1","parameterCategory":1,"la1":30.2991,"la2":30.254,"lo1":-89.0895,"lo2":-89.0444,"dy":0.0017,"dx":0.0017,"nx":28,"ny":28,"refTime":"2025-08-13T03:00:00:Z","depth":0,"parameterNumber":2,"parameterNumberName":"U-component_of_WINDS"},"data":[0,0,0,0,0,0,0,0,0,0,0,0,0,0,0,0,0,0,0,0,0,0,0,0,0,0,0,0,0,0,0,0,0,0,0,0,0,0,0,0,0,0,0,0,0,0,0,0,0,0,0,0,0,0,0,0,0,0,3.3577,3.3579,0,3.3747,3.3749,3.3751,3.3774,3.3773,3.3771,3.3769,3.3945,3.3951,3.3957,0,0,0,0,0,0,0,0,0,0,0,0,0,3.3271,3.3276,3.3577,3.3579,3.3581,3.3747,3.3749,3.3751,3.3774,3.3772,3.3771,3.3769,3.3943,3.395,3.3958,0,0,0,0,0,0,0,0,0,0,0,0,0,3.3418,3.3278,3.3576,3.3612,3.3617,3.3746,3.3749,3.3752,3.3775,3.3772,3.377,3.3768,3.3941,3.395,3.3959,3.4064,0,0,3.3987,3.3991,0,0,0,0,0,0,0,0,3.341,3.343,3.3605,3.361,3.3616,3.3737,3.3706,3.3857,3.3775,3.3715,3.3769,3.3767,3.3878,3.3892,3.3929,3.4072,3.408,3.3988,3.3994,3.3997,3.4,0,0,0,0,0,0,0,3.34,3.3423,3.3644,3.3607,3.3614,3.362,3.3638,3.3734,3.3808,3.372,3.3722,3.3742,3.388,3.392,3.3934,3.4082,3.3988,3.3996,3.4002,3.4005,3.4319,3.4321,0,0,0,0,0,0,3.3383,3.3414,3.3639,3.3649,3.3505,3.3627,3.3648,3.37,3.3807,3.3821,3.3744,3.3742,3.3906,3.3923,3.394,3.4069,3.3997,3.4006,3.4011,3.4316,3.4319,3.4322,0,0,0,0,0,0,3.3376,3.3403,3.3632,3.3532,3.3562,3.3635,3.3694,3.3705,3.3745,3.3825,3.3838,3.3771,3.3905,3.3927,3.4033,3.4075,3.401,3.4019,3.4313,3.4317,3.4321,3.4328,0,0,0,0,0,0,3.3367,3.34,3.3441,3.3533,3.3567,3.3722,3.3697,3.371,3.3761,3.3761,3.3854,3.3867,3.3904,3.4019,3.4042,3.4087,3.4026,3.4309,3.4314,3.4319,3.4325,3.4332,3.4339,0,0,0,0,0,3.3356,3.3437,3.3443,3.347,3.362,3.3724,3.3744,3.3784,3.3764,3.3806,3.3857,3.3864,3.4067,3.4029,3.4056,3.4104,3.4307,3.4313,3.4319,3.4321,3.4331,3.4339,0,0,0,0,0,0,3.335,3.345,3.3458,3.3571,3.3638,3.3728,3.3782,3.3793,3.3869,3.3865,3.3913,3.3934,3.4037,3.4081,3.4037,3.4211,3.4185,3.4197,3.4178,3.4187,3.4194,3.4181,3.4034,0,0,0,0,0,3.3361,3.3437,3.3521,3.3613,3.3646,3.3708,3.3755,3.378,3.3853,3.3882,3.394,3.4011,3.409,3.4141,3.4219,3.4331,3.4351,3.4378,3.4385,3.439,3.44,3.4461,3.4473,3.4343,3.4343,3.4342,0,0,3.3386,3.345,3.3496,3.3613,3.3668,3.3746,3.3732,3.3815,3.3873,3.3895,3.3997,3.4043,3.4124,3.4233,3.4284,3.4273,3.444,3.4398,3.4402,3.4409,3.4468,3.448,3.4491,3.4347,3.4346,3.4345,0,0,3.347,3.3527,3.3609,3.3664,3.3748,3.3789,3.3808,3.3895,3.3926,3.403,3.4047,3.4117,3.4253,3.431,3.4356,3.446,3.447,3.4484,3.4521,3.458,3.459,3.46,3.4635,3.4648,3.4494,3.4494,3.4494,0,3.3491,3.3608,3.3649,3.3731,3.3782,3.3804,3.3887,3.3939,3.4044,3.4078,3.4064,3.4234,3.4291,3.4413,3.4438,3.4475,3.4498,3.4474,3.4586,3.4595,3.4605,3.4639,3.4653,3.4495,3.4495,3.4495,3.4494,0,3.3628,3.3709,3.3765,3.3865,3.3922,3.4004,3.4057,3.4109,3.4129,3.4171,3.4275,3.4344,3.4435,3.4466,3.4487,3.459,3.4581,3.4576,3.4551,3.4617,3.4651,3.4664,3.4496,3.4496,3.4496,3.4495,0,0,3.3714,3.3834,3.3854,3.3898,3.3992,3.4055,3.4138,3.4226,3.4269,3.4341,3.4411,3.4525,3.452,3.4573,3.46,3.4652,3.4728,3.4641,3.4644,3.4654,3.4845,3.4847,3.4861,3.4735,3.4738,3.474,3.4837,0,3.3808,3.3955,3.3994,3.4118,3.4193,3.4214,3.4286,3.4351,3.4391,3.4461,3.4506,3.4585,3.4574,3.4606,3.4658,3.4708,3.4767,3.4702,3.48,3.4803,3.4777,3.4879,3.4882,3.4971,3.4851,3.4853,3.4855,0,3.3938,3.401,3.4142,3.4224,3.4257,3.4321,3.4404,3.447,3.4543,3.4569,3.4627,3.4649,3.4736,3.4706,3.4825,3.4779,3.4822,3.4852,3.4857,3.4866,3.4832,3.4891,3.5,3.5013,3.4876,3.4874,3.4873,0,3.3985,3.4116,3.4211,3.4249,3.4348,3.4392,3.4435,3.4506,3.4556,3.4629,3.4661,3.4744,3.4788,3.4851,3.4895,3.4869,3.5009,3.4984,3.5032,3.5031,3.506,3.5058,3.5176,3.5089,3.5089,3.5089,3.5089,0,3.4086,3.4165,3.4234,3.4292,3.4381,3.4425,3.4512,3.4556,3.4619,3.4686,3.471,3.4772,3.4827,3.4896,3.4931,3.5023,3.5044,3.5066,3.5074,3.5064,3.506,3.5091,3.5086,3.5093,3.5092,3.5091,3.509,0,3.4153,3.4203,3.4308,3.4392,3.4415,3.4476,3.4548,3.4606,3.4647,3.4731,3.4754,3.4818,3.4901,3.495,3.5056,3.5079,3.5181,3.5187,3.5155,3.5159,3.5204,3.5198,3.5346,3.5367,3.5267,3.5268,3.5269,0,3.4214,3.4275,3.4365,3.4411,3.4455,3.4529,3.458,3.4625,3.4677,3.4764,3.4811,3.4895,3.4965,3.5096,3.5152,3.5233,3.524,3.5287,3.5253,3.5239,3.5239,3.5235,3.524,3.5292,3.5293,3.5294,3.5294,0,3.4315,3.4336,3.4408,3.4488,3.4547,3.4613,3.4678,3.4714,3.477,3.4827,3.4912,3.4966,3.5072,3.5155,3.524,3.5285,3.5299,3.5304,3.532,3.5309,3.5287,3.5298,3.5169,3.5301,3.53,3.5299,3.5299,3.5299,3.4381,3.4435,3.4507,3.4585,3.4639,3.4698,3.4756,3.4803,3.4874,3.4964,3.4986,3.5075,3.5146,3.5261,3.5307,3.5377,3.5369,3.5392,3.5397,3.5402,3.5402,3.5277,3.5393,3.5392,3.5392,3.5392,3.5392,0,3.4482,3.4528,3.46,3.469,3.4751,3.4758,3.483,3.4881,3.4959,3.5023,3.5091,3.5187,3.5267,3.5329,3.5411,3.5455,3.5463,3.5475,3.5472,3.5481,3.5405,3.5383,3.5467,3.5467,3.5467,3.5467,3.5467,3.5467,3.4542,3.4634,3.4663,3.4782,3.4828,3.4914,3.4954,3.5009,3.5061,3.5167,3.5233,3.5273,3.5336,3.5423,3.5496,3.5512,3.5541,3.5551,3.5568,3.5495,3.5487,3.5479,3.5459,3.5557,3.5558,3.5639,3.564,3.564]},{"header":{"parameterUnit":"m.s-1","parameterCategory":1,"la1":30.2991,"la2":30.254,"lo1":-89.0895,"lo2":-89.0444,"dy":0.0017,"dx":0.0017,"nx":28,"ny":28,"refTime":"2025-08-13T03:00:00:Z","depth":0,"parameterNumber":3,"parameterNumberName":"V-component_of_WINDS"},"data":[0,0,0,0,0,0,0,0,0,0,0,0,0,0,0,0,0,0,0,0,0,0,0,0,0,0,0,0,0,0,0,0,0,0,0,0,0,0,0,0,0,0,0,0,0,0,0,0,0,0,0,0,0,0,0,0,0,0,2.5425,2.5426,0,2.5527,2.5528,2.5529,2.5537,2.5536,2.5535,2.5534,2.564,2.5643,2.5647,0,0,0,0,0,0,0,0,0,0,0,0,0,2.5238,2.5241,2.5425,2.5426,2.5428,2.5526,2.5528,2.5529,2.5537,2.5536,2.5535,2.5533,2.5638,2.5643,2.5647,0,0,0,0,0,0,0,0,0,0,0,0,0,2.5327,2.5242,2.5425,2.5443,2.5446,2.5526,2.5528,2.553,2.5538,2.5536,2.5534,2.5533,2.5637,2.5642,2.5648,2.5717,0,0,2.5666,2.5668,0,0,0,0,0,0,0,0,2.5322,2.5334,2.5439,2.5442,2.5445,2.5517,2.5501,2.5592,2.5538,2.5503,2.5534,2.5532,2.56,2.5609,2.5632,2.5722,2.5726,2.5666,2.567,2.5672,2.5674,0,0,0,0,0,0,0,2.5316,2.533,2.5465,2.5441,2.5445,2.5447,2.5458,2.5518,2.556,2.5506,2.5507,2.5519,2.5602,2.5626,2.5634,2.5728,2.5666,2.5671,2.5675,2.5677,2.5877,2.5879,0,0,0,0,0,0,2.5306,2.5325,2.5462,2.5468,2.5378,2.5451,2.5464,2.5496,2.5559,2.5567,2.552,2.5519,2.5617,2.5628,2.5638,2.5722,2.5672,2.5678,2.5681,2.5876,2.5878,2.588,0,0,0,0,0,0,2.5302,2.5318,2.5458,2.5397,2.5415,2.5456,2.5493,2.5499,2.5523,2.557,2.5577,2.5537,2.5616,2.563,2.5697,2.5725,2.568,2.5685,2.5873,2.5876,2.5879,2.589,0,0,0,0,0,0,2.5297,2.5317,2.5344,2.5397,2.5418,2.5515,2.5495,2.5502,2.5533,2.5532,2.5588,2.5596,2.5616,2.5688,2.5702,2.5732,2.569,2.5871,2.5875,2.5878,2.5887,2.5892,2.5897,0,0,0,0,0,2.529,2.5343,2.5345,2.5362,2.5452,2.5517,2.5528,2.555,2.5535,2.5562,2.5592,2.5594,2.572,2.5695,2.5711,2.5743,2.5869,2.5874,2.5878,2.5885,2.5891,2.5897,0,0,0,0,0,0,2.5293,2.5351,2.5353,2.5426,2.5466,2.5518,2.5553,2.5557,2.5603,2.5601,2.5626,2.5639,2.5704,2.5731,2.5702,2.5812,2.5793,2.5801,2.5793,2.5799,2.5804,2.5797,2.5695,0,0,0,0,0,2.5302,2.5349,2.5397,2.5456,2.5476,2.5511,2.554,2.5553,2.5596,2.5614,2.5648,2.569,2.5739,2.5771,2.5818,2.5891,2.5902,2.5921,2.5926,2.593,2.5936,2.5974,2.5983,2.5894,2.5894,2.5894,0,0,2.5321,2.5359,2.5387,2.5458,2.5491,2.5539,2.5525,2.5577,2.5613,2.5622,2.5686,2.5713,2.5761,2.583,2.5863,2.5854,2.5963,2.5935,2.5938,2.5942,2.598,2.5988,2.5996,2.5897,2.5896,2.5896,0,0,2.5381,2.5414,2.5466,2.5499,2.5548,2.5571,2.5583,2.5634,2.5651,2.5716,2.5723,2.5766,2.585,2.5884,2.5912,2.5982,2.5985,2.5997,2.6024,2.6061,2.6068,2.6074,2.6098,2.6107,2.6003,2.6003,2.6003,0,2.5399,2.5471,2.5493,2.5544,2.5574,2.5583,2.5635,2.5666,2.5729,2.575,2.5739,2.5843,2.5877,2.5953,2.597,2.5993,2.6007,2.5991,2.6065,2.6072,2.6078,2.6101,2.611,2.6004,2.6004,2.6004,2.6004,0,2.549,2.554,2.5576,2.5635,2.567,2.5721,2.575,2.5782,2.5792,2.5815,2.588,2.592,2.5975,2.5995,2.6005,2.6072,2.6065,2.606,2.6041,2.6087,2.6109,2.6118,2.6006,2.6005,2.6005,2.6005,0,0,2.5555,2.5624,2.5637,2.5663,2.5717,2.5756,2.5808,2.5861,2.5887,2.593,2.5973,2.6043,2.6037,2.6069,2.6084,2.6116,2.6167,2.6107,2.6108,2.6116,2.6242,2.6245,2.6255,2.617,2.6171,2.6173,2.6238,0,2.562,2.5712,2.5731,2.581,2.5856,2.5864,2.5908,2.5946,2.5969,2.6011,2.6036,2.6085,2.6074,2.6093,2.6126,2.6154,2.6193,2.615,2.621,2.6212,2.6197,2.6267,2.6271,2.6331,2.6246,2.6248,2.6249,0,2.5708,2.5751,2.5834,2.5881,2.5901,2.5941,2.599,2.603,2.6073,2.6087,2.6121,2.6131,2.6184,2.6163,2.6236,2.6206,2.6232,2.6249,2.6252,2.6258,2.6233,2.6275,2.635,2.6359,2.6263,2.6262,2.6261,0,2.5746,2.5825,2.5885,2.5907,2.5963,2.599,2.6015,2.6056,2.6086,2.6129,2.6148,2.6197,2.6224,2.6261,2.6284,2.6266,2.6355,2.6336,2.6368,2.6367,2.6386,2.6385,2.6466,2.6403,2.6403,2.6403,2.6403,0,2.5816,2.5867,2.5902,2.5939,2.5995,2.6017,2.6072,2.6096,2.6132,2.6173,2.6183,2.6222,2.625,2.6292,2.631,2.6367,2.6379,2.6392,2.6396,2.6391,2.6389,2.6408,2.6404,2.6405,2.6405,2.6404,2.6404,0,2.5869,2.5895,2.596,2.6006,2.6019,2.6058,2.6098,2.6134,2.6156,2.6208,2.6221,2.6256,2.6306,2.6332,2.6395,2.6407,2.6471,2.6473,2.6456,2.6458,2.6488,2.6484,2.6584,2.6598,2.6526,2.6527,2.6528,0,2.5911,2.595,2.6,2.6028,2.6053,2.6098,2.6128,2.6151,2.6182,2.6232,2.6261,2.6311,2.6352,2.6431,2.6462,2.651,2.6513,2.6545,2.652,2.6513,2.6512,2.651,2.6513,2.6549,2.655,2.655,2.6551,0,2.5984,2.5995,2.6038,2.6084,2.612,2.6158,2.6196,2.6218,2.6246,2.628,2.6331,2.6363,2.6426,2.6475,2.6525,2.655,2.6555,2.6558,2.6568,2.6563,2.6551,2.6556,2.6467,2.6556,2.6555,2.6555,2.6554,2.6554,2.6033,2.6067,2.6107,2.6154,2.6184,2.6219,2.6254,2.6279,2.6322,2.6374,2.6385,2.6438,2.6478,2.6545,2.6571,2.6613,2.6606,2.6621,2.6625,2.6628,2.6628,2.6544,2.6622,2.6622,2.6622,2.6622,2.6622,0,2.6105,2.6131,2.6174,2.6226,2.6262,2.6263,2.6304,2.6334,2.6381,2.6417,2.6457,2.6514,2.6562,2.6595,2.6644,2.667,2.6674,2.6682,2.668,2.6686,2.6632,2.6618,2.6678,2.6678,2.6678,2.6678,2.6678,2.6678,2.6147,2.6204,2.6219,2.6291,2.6316,2.6368,2.6391,2.6423,2.6452,2.6515,2.6554,2.6575,2.661,2.6661,2.6704,2.6713,2.673,2.6738,2.6747,2.6696,2.669,2.6684,2.6671,2.6741,2.6742,2.6797,2.6797,2.6798]}]]